Preview of NWS' New Version of Forecast
This preview is not operational and should not be used for support decisions.
Latest weather observations around

Ottawa Municipal Airport (KOWI)

Using English Units (Switch to International System of Units)
Date/ Time (CDT) Wind (mph) Vis. (mi) Weather Sky Cond. Temp (°F) Rel. Humidity Wind Chill (°F) Heat Index (°F) Pressure Precip. (in)
Air Dwpt 6 hour Altimeter (inHg) Sea level (inHg) 1 hr 3 hr 6 hr
Max Min
Mar 26 08:05   4 Clear   32 32     100%     30.38        
Mar 26 07:55 Calm 0.5 Clear   32 32     100%     30.38        
Mar 26 07:35 Calm 1.75 Clear   32 32     100%     30.37        
Mar 26 07:15 Calm 0.5 Clear   32 32     100%     30.37        
Mar 26 06:55 Calm 0.25 Clear   32 32     100%     30.36        
Mar 26 06:35 NNW 5 0.5 Clear   32 32     100% 27   30.35        
Mar 26 06:15 Calm   Clear   32 32     100%     30.35        
Mar 26 05:55 Calm   Clear   32 32     100%     30.35        
Mar 26 05:35 Calm 0.5 Clear   34 34     100%     30.34        
Mar 26 05:15 Calm   Clear   34 34     100%     30.34        
Mar 26 04:55 Calm 0.25 Clear   32 32     100%     30.34        
Mar 26 04:35 Calm 0.25 Clear   32 32     100%     30.34        
Mar 26 04:15 Calm 5 Clear   34 34     100%     30.34        
Mar 26 03:55 Calm 0.5 Clear   36 36     100%     30.34        
Mar 26 03:35 Calm 0.25 Clear   36 36     100%     30.34        
Mar 26 03:15 Calm 1.5 Clear   37 37     100%     30.34        
Mar 26 02:55 Calm   Clear   36 36     100%     30.34        
Mar 26 02:35 Calm 0.75 Clear   36 36     100%     30.34        
Mar 26 02:15 NNW 3 6 Clear   37 37     100% 35   30.34        
Mar 26 01:55 NW 3 7 Clear   37 37     100% 35   30.34        
Mar 26 01:35 Calm 7 Clear   37 37     100%     30.34        
Mar 26 01:15 Calm 8 Clear   37 37     100%     30.34        
Mar 26 00:55 WNW 3 6 Clear   36 36     100% 33   30.34        
Mar 26 00:35 WNW 5 6 Clear   36 36     100% 32   30.34        
Mar 26 00:15 Calm 7 Clear   39 39     100%     30.33        
Mar 25 23:55 Calm 5 Clear   37 37     100%     30.34        
Mar 25 23:35 Calm 9 Clear   39 39     100%     30.34        
Mar 25 23:15 Calm 10 Clear   39 39     100%     30.33        
Mar 25 22:55 Calm 10 Clear   37 37     100%     30.33        
Mar 25 22:35 S 3 10 Clear   39 39     100% 37   30.32        
Mar 25 22:15 Calm 10 Clear   43 43     100%     30.32        
Mar 25 21:55 Calm 10 Clear   43 41     93%     30.32        
Mar 25 21:35 Calm 10 Clear   45 43     93%     30.32        
Mar 25 21:15 Calm 10 Clear   45 41     87%     30.31        
Mar 25 20:55 Calm 10 Clear   43 41     93%     30.31        
Mar 25 20:35 N 3 10 Clear   46 41     81% 45            
Mar 25 20:15 NNE 5 10 Clear   48 43     81% 46   30.29        
Mar 25 19:55 NNE 5 10 Clear   50 43     76%     30.29        
Mar 25 19:35 NE 5 10 Clear   52 43     71%     30.29        
Mar 25 19:15 NE 8 10 Clear   54 43     67%     30.28        
Mar 25 18:55 NNE 7 10 Clear   55 41     58%     30.28        
Mar 25 18:35   10 Clear   55 43     62%     30.28        
Mar 25 18:15   10 Clear   55 43     62%     30.27        
Mar 25 17:55   10 Clear   54 45     71%     30.27        
Mar 25 17:35   10 Clear   54 45     71%     30.28        
Mar 25 17:15   10 Clear   54 45     71%     30.28        
Mar 25 16:55   10 Clear   54 45     71%     30.28        
Mar 25 16:35   10 Clear   54 45     71%     30.28        
Mar 25 16:15   10 Clear   54 45     71%     30.28        
Mar 25 15:55   10 Clear   54 46     77%     30.28        
Mar 25 15:35 N 7 10 Clear   52 46     82%     30.28        
Mar 25 15:15   10 Clear   50 46     87%     30.28        
Mar 25 14:55   10 Clear   52 46     82%     30.28        
Mar 25 14:35   10 Clear   52 46     82%     30.29        
Mar 25 14:15   10 Clear   52 46     82%     30.29        
Mar 25 13:55   10 Clear   52 46     82%     30.29        
Mar 25 13:35   10 Clear   52 46     82%     30.28        
Mar 25 13:15   10 Clear   52 46     82%     30.28        
Mar 25 12:55   10 Clear   52 46     82%     30.28        
Mar 25 12:35 NNE 10 10 Clear   52 46     82%     30.27        
Mar 25 12:15 NNE 12 10 Clear   52 48     87%     30.27        
Mar 25 11:55   10 Clear   50 48     93%     30.27        
Mar 25 11:35   10 Clear   50 48     93%     30.26        
Mar 25 11:15   10 Clear   50 48     93%     30.26        
Mar 25 10:55   10 Clear   50 48     93%     30.25        
Mar 25 10:35   10 Cloudy OVC014 50 48     94%     30.24        
Mar 25 10:15 N 15 10 Clear   50 50     100%     30.24        
Mar 25 09:55 N 14 9 Clear   50 50     100%     30.23        
Mar 25 09:35   8 Cloudy BKN011 OVC030 48 48     100%     30.22        
Mar 25 09:15   7 Clear   48 48     100%     30.22        
Mar 25 08:55   7 Cloudy OVC008 48 48     100%     30.21        
Mar 25 08:35 N 10 7 Clear   48 48     100% 44   30.21        
Mar 25 08:15 N 13 6 Clear   48 48     100% 43   30.2        
Mar 25 07:55 N 9 5 Clear   48 48     100% 44            
Mar 25 07:35 NNW 12 5 Clear   48 48     100% 43   30.19        
Mar 25 07:15 NNW 10 6 Clear   48 48     100% 44   30.18        
Mar 25 06:55 NNW 9 6 Clear   48 48     100% 44            
Mar 25 06:35 NNW 10 7 Cloudy OVC008 48 48     100% 44   30.17        
Mar 25 06:15 NW 10 6 Clear   48 48     100% 44   30.16        
Mar 25 05:55 NNW 9 6 Clear   48 48     100% 44   30.15        
Mar 25 05:35 NNW 12 5 Fog/Mist OVC008 48 48     100% 43   30.15        
Mar 25 05:15 NNW 10 5 Clear   48 48     100% 44   30.14        
Mar 25 04:55 NNW 12 5 Clear   48 48     100% 43   30.14        
Mar 25 04:35 NNW 8 5 Fog/Mist OVC006 48 48     100% 45   30.14        
Mar 25 04:15 NNW 9 4 Clear   48 48     100% 44   30.13        
Mar 25 03:55 NNW 13 4 Clear   48 48     100% 43   30.13        
Mar 25 03:35 NNW 14 6 Fog/Mist OVC008 48 48     100% 43   30.13        
Mar 25 03:15 NNW 12 5 Clear   48 48     100% 43            
Mar 25 02:55 NNW 10 7 Cloudy OVC009 48 48     100% 44   30.13        
Mar 25 02:35 NNW 13 7 Cloudy OVC009 48 48     100% 43   30.13        
Mar 25 02:15 NNW 10 8 Clear   50 48     93%     30.13        
Mar 25 01:55 NNW 13 10 Clear   50 50     100%     30.12        
Mar 25 01:35 NNW 10 10 Cloudy OVC027 50 50     100%     30.12        
Mar 25 01:15 NNW 13 10 Clear   50 50     100%     30.12        
Mar 25 00:55 NNW 14 10 Clear   50 50     100%     30.11        
Mar 25 00:35 NNW 12 10 Cloudy OVC024 50 50     100%     30.11        
Mar 25 00:15 NNW 16 10 Cloudy FEW013 OVC027 50 50     100%     30.1        
Mar 24 23:55 NNW 17 10 Clear   52 50     94%     30.1        
Mar 24 23:35 NNW 15 10 Cloudy BKN013 BKN020 OVC032 52 52     100%     30.1        
Mar 24 23:15 NNW 12 10 Clear   52 52     100%     30.09        
Mar 24 22:55 NNW 7 10 Clear   52 52     100%     30.08        
Mar 24 22:35 NNW 10 10 Clear   52 52     100%     30.08        
Mar 24 22:15 NNW 9 10 Clear   52 50     94%     30.07        
Mar 24 21:55 NNW 13 10 Mostly Cloudy BKN043 52 50     94%     30.06        
Mar 24 21:35 NNW 9 10 Clear   52 50     94%     30.06        
Mar 24 21:15 NNW 10 10 Clear   54 50     88%     30.05        
Mar 24 20:55 NNW 10 10 Clear   55 50     82%     30.04        
Mar 24 20:35 NNW 10 10 Clear   55 50     82%     30.04        
Mar 24 20:15 NW 8 10 Clear   55 50     82%     30.03        
Mar 24 19:55 NW 7 10 Clear   55 48     77%     30.03        
Mar 24 19:35 WNW 7 10 Cloudy OVC050 55 48     77%     30.02        
Mar 24 19:15 WNW 9 10 Clear   55 48     77%              
Mar 24 18:55 NW 8 10 Clear   57 48     72%              
Mar 24 18:35 WNW 13 10 Clear   57 48     72%     30        
Mar 24 18:15 WNW 8 10 Clear   57 46     67%     30        
Mar 24 17:55 WNW 9 10 Clear   57 46     67%     29.99        
Mar 24 17:35 WNW 13 10 Cloudy SCT043 OVC050 57 46     67%     29.99        
Mar 24 17:15 NW 10 10 Clear   57 48     72%     29.98        
Mar 24 16:55 WNW 13 10 Clear   57 46     67%     29.98        
Mar 24 16:35 WNW 15 10 Cloudy BKN031 OVC042 57 46     67%     29.98        
Mar 24 16:15 WNW 10 10 Clear   57 46     67%     29.97        
Mar 24 15:55 WNW 14 10 Clear   57 46     67%     29.97        
Mar 24 15:35 WNW 12 10 Cloudy SCT034 OVC041 57 46     67%     29.97        
Mar 24 15:15 WNW 10 10 Cloudy FEW029 BKN035 OVC042 57 46     67%     29.97        
Mar 24 14:55 WNW 9 10 Clear   57 46     67%     29.97        
Mar 24 14:35 WNW 13 10 Cloudy OVC029 55 46     72%     29.97        
Mar 24 14:15 W 12 10 Clear   55 46     72%     29.97        
Mar 24 13:55 WNW 13 10 Cloudy OVC023 55 46     72%     29.97        
Mar 24 13:35 W 13 10 Cloudy OVC024 55 46     72%     29.97        
Mar 24 13:15 W 12 10 Cloudy OVC022 55 48     77%              
Mar 24 12:55 W 14 10 Clear   55 48     77%              
Mar 24 12:35 W 14 10 Cloudy OVC020 55 48     77%              
Mar 24 12:15 W 16 10 Clear   55 48     77%              
Mar 24 11:55 W 12 10 Clear   55 46     72%              
Mar 24 11:35 W 14 10 Clear   57 48     72%              
Mar 24 11:15   10 Clear   55 48     77%              
Mar 24 10:55 W 14 10 Clear   55 50     82%              
Mar 24 10:35   10 Clear   55 50     82%              
Mar 24 10:15   10 Clear   55 52     88%     29.96        
Mar 24 09:55 SW 14 10 Clear   55 54     94%     29.96        
Mar 24 09:35 WSW 13 10 Clear   54 54     100%     29.96        
Mar 24 09:15 SW 12 9 Clear   54 54     100%     29.96        
Mar 24 08:55 SW 9 8 Clear   54 54     100%     29.96        
Mar 24 08:35 SW 8 7 Clear   50 50     100%     29.96        
Mar 24 08:15 SW 5 5 Clear   50 50     100%     29.95        
Mar 24 07:55 SW 6 5 Clear   50 50     100%     29.95        
Mar 24 07:35 S 6 4 Fog/Mist SCT005 BKN032 BKN055 48 48     100% 46   29.95        
Mar 24 07:15 S 6 6 Clear   50 50     100%     29.95        
Mar 24 06:55 SSW 6 7 Clear   50 50     100%     29.95        
Mar 24 06:35 SSW 8 7 Cloudy BKN006 BKN012 OVC018 50 50     100%     29.95        
Mar 24 06:15 SW 6 7 Clear   50 50     100%     29.95        
Mar 24 05:55 S 6 6 Fog/Mist FEW008 OVC014 50 50     100%     29.94        
Mar 24 05:35   6 Fog/Mist OVC006 48 48     100%     29.95        
Mar 24 05:15 SSW 6 8 Clear   48 48     100% 46   29.94        
Mar 24 04:55 SSE 10 6 Clear   48 48     100% 44   29.92        
Mar 24 04:35 SSE 10 3 Light Rain OVC009 48 48     100% 44   29.94        
Mar 24 04:15 SSW 5 10 Clear   48 48     100% 46   29.97        
Mar 24 03:55 WSW 7 10 Clear   48 48     100% 45   29.97        
Mar 24 03:35 Calm 10 Cloudy SCT014 BKN025 OVC100 48 48     100%     29.96        
Mar 24 03:15 SSE 12 10 Cloudy BKN024 OVC090 48 48     100% 43   29.95        
Mar 24 02:55 SSE 9 10 Cloudy OVC022 48 48     100% 44   29.95        
Mar 24 02:35 SSE 12 10 Clear   48 48     100% 43   29.96        
Mar 24 02:15 SSE 9 10 Clear   48 46     93% 44   29.96        
Mar 24 01:55 SSE 9 10 Clear   48 48     100% 44   29.97        
Mar 24 01:35 SSE 12 10 Mostly Cloudy FEW030 SCT037 BKN110 48 46     93% 43   29.97        
Mar 24 01:15 SSE 14 10 Clear   48 48     100% 43   29.97        
Mar 24 00:55 SSE 10 10 Clear   50 48     93%     29.98        
Mar 24 00:35 SSE 14 10 Clear   50 48     93%     29.99        
Mar 24 00:15 SSE 17 10 Clear   50 48     93%     29.99        
Mar 23 23:55 SSE 20 10 Clear   50 48     93%     29.99        
Mar 23 23:35 SSE 20 10 Cloudy and Windy BKN037 OVC043 50 48     94%     29.99        
Mar 23 23:15 SSE 17 10 Clear   52 48     87%     30        
Mar 23 22:55 SSE 16 10 Clear   52 48     87%     30.01        
Mar 23 22:35 SSE 16 10 Cloudy OVC029 52 48     87%     30.01        
Mar 23 22:15 SSE 20 10 Clear   52 48     87%     30.01        
Mar 23 21:55 SSE 18 10 Clear   52 46     82%     30.01        
Mar 23 21:35 SSE 20 10 Cloudy and Windy OVC025 52 46     82%     30.01        
Mar 23 21:15 SSE 17 10 Clear   54 46     77%     30.02        
Mar 23 20:55 SSE 17 10 Clear   54 46     77%     30.01        
Mar 23 20:35 SSE 22 10 Cloudy and Windy OVC022 54 46     77%     30.01        
Mar 23 20:15 SSE 18 10 Clear   54 48     82%     30.02        
Mar 23 19:55 SSE 14 10 Clear   54 48     82%     30.01        
Mar 23 19:35 SSE 14 10 Cloudy BKN026 OVC030 54 50     88%     30.01        
Mar 23 19:15 SSE 14 8 Cloudy FEW023 OVC032 54 50     88%     30.01        
Mar 23 18:55 S 12 10 Clear   55 48     77%     30.01        
Mar 23 18:35 SSE 14 10 Clear   55 48     77%     30        
Mar 23 18:15 SSE 15 10 Clear   55 50     82%     30        
Mar 23 17:55 SSE 14 10 Clear   55 50     82%     30        
Mar 23 17:35 S 13 10 Cloudy BKN021 OVC043 55 50     82%     30        
Mar 23 17:15 S 12 9 Cloudy BKN022 BKN026 OVC065 55 50     82%     30        
Mar 23 16:55 S 10 10 Clear   57 50     77%     30        
Mar 23 16:35 SSE 9 10 Clear   57 50     77%     29.99        
Mar 23 16:15 SSE 9 10 Clear   55 50     82%     29.99        
Mar 23 15:55   10 Mostly Cloudy BKN026 55 50     82%     30.01        
Mar 23 15:35 SSE 20 10 Clear   57 50     77%     30        
Mar 23 15:15 S 21 10 Clear and Windy   57 50     77%              
May 14 22:00 E 13 10 Clear   72 59     65%   71 29.82        
May 14 21:20 SW 14 10 Clear   72 59     65%   71 29.83        
May 14 20:40   6 Clear   70 63     78%     29.83        
May 14 17:20 SSW 14 10 Clear   72 59     65%   71 29.82        
May 14 15:40 S 7 10 Clear   81 70     70%   84 29.84        
May 14 14:00 WSW 7 9 Clear   86 68     55%   89 29.88        
May 14 11:20 SSW 13 9 Clear   81 68     66%   83 29.92        
May 14 03:20 S 7 10 Clear   70 64     83%     29.9        
May 13 21:20 SSE 10 10 Clear   75 66     74%   76 29.89        
May 13 05:20 S 7 9 Clear   66 64     94%     29.95        
May 12 08:00 S 12 10 Clear   72 64     78%   72 29.86        
May 12 03:00 S 14 10 Clear   73 64     73%   74 29.83        
May 12 00:00 S 13 10 Clear   75 64     69%   76 29.82        
May 11 21:20 S 13 10 Clear   75 63     65%   75 29.76        
May 11 19:40 S 16 9 Clear   81 64     58%   82 29.72